Simultaneous Nadir Overpasses (SNOs) Predictions

Prediction of SNOs between NOAA-15 and METOP-C Satellite Orbit:

Table of predicted SNOs for the next 14.0 days since TLE Epoch: 5/8/2021
Index Date (NOAA-15) Time (NOAA-15) Lat,Lon (NOAA-15) SZA (NOAA-15 ) Date (METOP-C) Time (METOP-C) Lat,Lon (METOP-C) SZA (METOP-C ) Distance(km) Time Diff (sec)
1 05/12/2021 23:39:07 -80.88, 44.83 115.24 05/12/2021 23:38:06 -80.85, 39.18 115.86 99.84 61
2 05/13/2021 00:29:42 81.01,-150.43 64.58 05/13/2021 00:28:38 81.01,-150.27 64.57 2.88 64
3 05/13/2021 01:20:17 -81.02, 16.77 115.44 05/13/2021 01:19:19 -81.00, 16.92 115.46 2.91 58
4 05/13/2021 02:10:44 81.01,-175.60 64.57 05/13/2021 02:10:00 81.00,-175.76 64.53 2.88 44
5 05/13/2021 03:01:19 -81.01, -8.39 115.45 05/13/2021 03:00:40 -81.01, -8.21 115.45 3.12 39
6 05/13/2021 03:51:46 81.00, 159.23 64.56 05/13/2021 03:51:21 81.01, 159.11 64.54 2.49 25
7 05/13/2021 04:42:21 -81.01, -33.56 115.46 05/13/2021 04:42:02 -81.01, -33.71 115.49 2.63 19
8 05/13/2021 05:32:49 81.02, 133.70 64.52 05/13/2021 05:32:43 81.01, 133.61 64.51 1.83 6
9 05/13/2021 06:23:23 -81.01, -58.72 115.47 05/13/2021 06:23:23 -81.02, -58.83 115.48 2.35 0
10 05/13/2021 07:13:51 81.01, 108.53 64.51 05/13/2021 07:14:04 81.02, 108.48 64.52 1.03 13
11 05/13/2021 08:04:26 -81.02, -84.25 115.51 05/13/2021 08:04:45 -81.01, -84.33 115.52 1.61 19
12 05/13/2021 08:54:54 81.02, 83.00 64.48 05/13/2021 08:55:26 81.01, 82.98 64.48 1.62 32
13 05/13/2021 09:45:28 -81.01,-109.41 115.52 05/13/2021 09:46:06 -81.02,-109.46 115.50 0.99 38
14 05/13/2021 10:35:56 81.02, 57.83 64.47 05/13/2021 10:36:47 81.02, 57.86 64.49 0.43 51
15 05/13/2021 11:26:31 -81.03,-134.94 115.56 05/13/2021 11:27:28 -81.01,-134.95 115.54 1.43 57
16 05/13/2021 12:16:58 81.02, 32.66 64.46 05/13/2021 12:18:08 81.03, 32.73 64.50 1.71 70



Historial Predications of SNOs between NOAA-15 and METOP-C
